QPF
0.14 0.15 0.13 0.15 0.15 0.15 0.14 0.13 0.12 0.11 0.09 0.06 0.06 0.04 0.04 0.04 0.05 0.07 0.05 0.03 0.02 0.04 0.07 0.10 0.07 0.06 0.06 0.06 0.06 0.06 0.06 0.07 0.07 0.05 0.04 0.04 0.04 0.04 0.03 0.03 0.04 0.04 0.03
0.11 0.13 0.12 0.12 0.15 0.17 0.16 0.13 0.11 0.11 0.10 0.09 0.08 0.05 0.06 0.06 0.07 0.07 0.06 0.06 0.05 0.05 0.07 0.10 0.10 0.09 0.10 0.10 0.10 0.08 0.07 0.06 0.05 0.05 0.05 0.04 0.03 0.03 0.03 0.03 0.04 0.03 0.03
0.12 0.11 0.12 0.11 0.13 0.15 0.16 0.15 0.12 0.11 0.10 0.09 0.10 0.09 0.09 0.07 0.08 0.07 0.08 0.10 0.09 0.07 0.07 0.09 0.12 0.12 0.12 0.13 0.11 0.09 0.08 0.07 0.06 0.05 0.04 0.03 0.03 0.03 0.02 0.02 0.02 0.02 0.02
0.13 0.14 0.15 0.13 0.12 0.11 0.12 0.14 0.13 0.12 0.11 0.12 0.12 0.10 0.09 0.08 0.07 0.07 0.09 0.10 0.13 0.12 0.11 0.09 0.10 0.11 0.13 0.14 0.12 0.11 0.10 0.10 0.07 0.04 0.03 0.03 0.02 0.02 0.02 0.02 0.02 0.02 0.02
0.14 0.15 0.16 0.16 0.14 0.11 0.12 0.15 0.16 0.15 0.15 0.15 0.12 0.10 0.09 0.09 0.07 0.07 0.09 0.10 0.11 0.14 0.15 0.14 0.13 0.15 0.17 0.16 0.14 0.11 0.10 0.09 0.06 0.03 0.02 0.02 0.02 0.02 0.02 0.02 0.02 0.02 0.01
0.13 0.13 0.15 0.17 0.15 0.12 0.13 0.15 0.17 0.18 0.16 0.15 0.13 0.11 0.09 0.09 0.08 0.09 0.10 0.09 0.10 0.12 0.13 0.13 0.13 0.15 0.16 0.16 0.14 0.12 0.12 0.09 0.06 0.03 0.02 0.02 0.02 0.02 0.01 0.01 0.01 0.01 0.01
0.08 0.08 0.12 0.15 0.14 0.13 0.14 0.15 0.16 0.19 0.19 0.17 0.16 0.14 0.12 0.10 0.09 0.10 0.10 0.09 0.10 0.10 0.12 0.14 0.15 0.15 0.16 0.14 0.11 0.13 0.15 0.12 0.07 0.04 0.03 0.02 0.01 0.01 0.01 0.01 0.01 0.02 0.02
0.06 0.05 0.09 0.12 0.14 0.14 0.14 0.17 0.20 0.20 0.19 0.19 0.18 0.18 0.18 0.17 0.13 0.10 0.10 0.09 0.09 0.10 0.11 0.11 0.12 0.14 0.14 0.14 0.14 0.15 0.14 0.11 0.07 0.05 0.03 0.02 0.01 0.01 0.01 0.01 0.01 0.01 0.02
0.09 0.07 0.07 0.10 0.13 0.15 0.17 0.19 0.23 0.24 0.23 0.22 0.22 0.22 0.21 0.19 0.17 0.16 0.14 0.12 0.11 0.11 0.10 0.09 0.10 0.11 0.12 0.11 0.10 0.10 0.09 0.06 0.05 0.03 0.02 0.02 0.01 0.01 0.01 0.01 0.00 0.00 0.00
0.09 0.08 0.08 0.09 0.11 0.12 0.15 0.19 0.26 0.33 0.34 0.35 0.36 0.33 0.26 0.20 0.19 0.20 0.20 0.16 0.13 0.11 0.08 0.07 0.08 0.09 0.09 0.07 0.07 0.07 0.06 0.04 0.03 0.02 0.01 0.01 0.00 0.00 0.00 0.00 0.00 0.00 0.00
0.05 0.07 0.08 0.08 0.08 0.09 0.10 0.13 0.20 0.28 0.34 0.38 0.43 0.43 0.37 0.31 0.25 0.22 0.24 0.22 0.18 0.15 0.12 0.09 0.08 0.07 0.06 0.06 0.05 0.05 0.04 0.03 0.02 0.01 0.01 0.00 0.00 0.00 0.00 0.00 0.00 0.00 0.00
0.05 0.05 0.06 0.05 0.05 0.05 0.07 0.10 0.15 0.19 0.23 0.31 0.36 0.38 0.38 0.37 0.33 0.27 0.25 0.26 0.24 0.21 0.16 0.13 0.10 0.08 0.07 0.06 0.05 0.06 0.05 0.04 0.03 0.02 0.01 0.01 0.01 0.00 0.00 0.00 0.00 0.00 0.00
0.03 0.03 0.05 0.05 0.04 0.04 0.07 0.10 0.13 0.17 0.19 0.23 0.28 0.33 0.36 0.37 0.35 0.32 0.30 0.28 0.26 0.23 0.17 0.13 0.11 0.09 0.07 0.05 0.05 0.04 0.02 0.02 0.02 0.01 0.01 0.01 0.01 0.00 0.00 0.00 0.00 0.00 0.00
0.02 0.02 0.03 0.03 0.04 0.05 0.07 0.08 0.11 0.15 0.18 0.20 0.22 0.23 0.26 0.30 0.31 0.29 0.29 0.27 0.25 0.23 0.18 0.13 0.10 0.08 0.06 0.04 0.03 0.03 0.02 0.02 0.02 0.02 0.01 0.01 0.00 0.00 0.00 0.00 0.00 0.00 0.00
0.01 0.01 0.01 0.02 0.03 0.04 0.05 0.07 0.08 0.08 0.10 0.14 0.16 0.16 0.17 0.19 0.19 0.19 0.20 0.19 0.18 0.19 0.17 0.13 0.09 0.07 0.05 0.04 0.03 0.03 0.02 0.02 0.02 0.01 0.01 0.00 0.00 0.00 0.00 0.00 0.00 0.00 0.00
0.02 0.02 0.02 0.02 0.03 0.04 0.05 0.05 0.07 0.06 0.05 0.07 0.08 0.08 0.09 0.10 0.11 0.12 0.12 0.12 0.12 0.12 0.12 0.10 0.07 0.05 0.04 0.03 0.03 0.02 0.02 0.01 0.01 0.00 0.00 0.00 0.00 0.00 0.00 0.00 0.00 0.00 0.00
0.02 0.03 0.03 0.03 0.03 0.02 0.02 0.03 0.05 0.05 0.04 0.04 0.04 0.04 0.04 0.04 0.05 0.05 0.06 0.06 0.07 0.07 0.06 0.05 0.04 0.03 0.02 0.02 0.02 0.01 0.01 0.01 0.00 0.00 0.00 0.00 0.00 0.00 0.00 0.00 0.00 0.00 0.00
0.01 0.02 0.02 0.02 0.01 0.01 0.01 0.02 0.02 0.03 0.03 0.02 0.02 0.03 0.03 0.03 0.03 0.03 0.03 0.04 0.04 0.04 0.03 0.03 0.02 0.02 0.02 0.01 0.01 0.01 0.00 0.00 0.00 0.00 0.00 0.00 0.00 0.00 0.00 0.00 0.00 0.00 0.00
0.01 0.01 0.01 0.01 0.01 0.01 0.01 0.01 0.01 0.01 0.01 0.01 0.01 0.01 0.02 0.02 0.02 0.01 0.01 0.02 0.02 0.01 0.01 0.01 0.01 0.01 0.01 0.01 0.01 0.01 0.00 0.00 0.00 0.00 0.00 0.00 0.00 0.00 0.00 0.00 0.00 0.00 0.00
0.01 0.01 0.01 0.01 0.00 0.00 0.00 0.00 0.00 0.00 0.00 0.00 0.00 0.00 0.01 0.01 0.01 0.01 0.00 0.00 0.00 0.00 0.00 0.00 0.00 0.01 0.01 0.01 0.01 0.01 0.01 0.01 0.00 0.00 0.00 0.00 0.00 0.00 0.00 0.00 0.00 0.00 0.00
0.01 0.01 0.01 0.01 0.01 0.01 0.01 0.00 0.00 0.00 0.00 0.00 0.00 0.00 0.00 0.00 0.00 0.00 0.00 0.00 0.00 0.00 0.00 0.01 0.01 0.01 0.01 0.01 0.01 0.00 0.00 0.00 0.00 0.00 0.00 0.00 0.00 0.00 0.00 0.00 0.00 0.00 0.00
0.01 0.01 0.01 0.01 0.01 0.01 0.00 0.00 0.00 0.00 0.00 0.00 0.00 0.00 0.00 0.00 0.00 0.00 0.00 0.00 0.00 0.00 0.00 0.01 0.00 0.01 0.01 0.01 0.01 0.00 0.01 0.01 0.01 0.00 0.00 0.01 0.00 0.01 0.01 0.01 0.00 0.00 0.00
0.02 0.01 0.01 0.01 0.00 0.00 0.00 0.00 0.01 0.01 0.00 0.00 0.00 0.00 0.00 0.00 0.00 0.00 0.00 0.00 0.00 0.00 0.00 0.00 0.01 0.01 0.01 0.01 0.01 0.01 0.01 0.01 0.01 0.00 0.00 0.01 0.01 0.01 0.00 0.00 0.00 0.00 0.00
0.02 0.01 0.01 0.01 0.01 0.00 0.00 0.00 0.00 0.00 0.00 0.00 0.00 0.00 0.00 0.00 0.00 0.00 0.00 0.00 0.00 0.00 0.00 0.00 0.00 0.01 0.00 0.00 0.01 0.01 0.01 0.01 0.01 0.01 0.01 0.01 0.01 0.01 0.00 0.01 0.00 0.00 0.00
0.02 0.01 0.01 0.01 0.01 0.00 0.00 0.00 0.00 0.00 0.00 0.00 0.00 0.00 0.00 0.00 0.00 0.00 0.00 0.00 0.00 0.00 0.00 0.00 0.00 0.00 0.00 0.00 0.00 0.01 0.01 0.02 0.03 0.02 0.01 0.01 0.01 0.01 0.01 0.01 0.00 0.00 0.00
0.01 0.00 0.01 0.01 0.00 0.00 0.00 0.00 0.00 0.00 0.00 0.00 0.00 0.00 0.00 0.00 0.00 0.00 0.00 0.01 0.01 0.00 0.00 0.00 0.01 0.01 0.01 0.00 0.00 0.01 0.02 0.02 0.02 0.02 0.01 0.01 0.02 0.02 0.02 0.01 0.01 0.00 0.00
MSLP
1016.44 1016.53 1016.61 1016.70 1016.82 1016.99 1017.19 1017.44 1017.68 1017.91 1018.08 1018.18 1018.20 1018.16 1018.10 1018.07 1018.10 1018.24 1018.49 1018.86 1019.31 1019.80 1020.28 1020.72 1021.08 1021.35 1021.54 1021.68 1021.78 1021.88 1022.00 1022.15 1022.34 1022.56 1022.79 1023.03 1023.26 1023.47 1023.67 1023.84 1023.98 1024.10 1024.19
1016.52 1016.57 1016.59 1016.60 1016.64 1016.72 1016.86 1017.07 1017.31 1017.57 1017.80 1017.99 1018.10 1018.14 1018.13 1018.11 1018.12 1018.20 1018.37 1018.65 1019.02 1019.45 1019.91 1020.36 1020.76 1021.10 1021.38 1021.60 1021.78 1021.95 1022.12 1022.30 1022.51 1022.73 1022.97 1023.22 1023.46 1023.70 1023.92 1024.12 1024.29 1024.44 1024.55
1016.68 1016.69 1016.64 1016.58 1016.52 1016.52 1016.60 1016.77 1017.02 1017.32 1017.63 1017.92 1018.13 1018.27 1018.33 1018.35 1018.34 1018.37 1018.46 1018.64 1018.92 1019.27 1019.69 1020.13 1020.56 1020.96 1021.32 1021.63 1021.90 1022.15 1022.38 1022.61 1022.84 1023.08 1023.33 1023.58 1023.82 1024.06 1024.29 1024.49 1024.68 1024.84 1024.96
1016.84 1016.80 1016.70 1016.55 1016.42 1016.34 1016.36 1016.50 1016.75 1017.10 1017.50 1017.89 1018.23 1018.49 1018.64 1018.71 1018.72 1018.72 1018.74 1018.84 1019.02 1019.29 1019.65 1020.06 1020.50 1020.95 1021.37 1021.76 1022.11 1022.44 1022.74 1023.02 1023.29 1023.55 1023.81 1024.05 1024.29 1024.52 1024.73 1024.92 1025.10 1025.25 1025.37
1016.93 1016.85 1016.68 1016.48 1016.27 1016.13 1016.09 1016.21 1016.47 1016.86 1017.34 1017.83 1018.30 1018.67 1018.94 1019.09 1019.14 1019.15 1019.14 1019.18 1019.29 1019.49 1019.79 1020.16 1020.59 1021.05 1021.51 1021.96 1022.38 1022.77 1023.13 1023.47 1023.78 1024.06 1024.33 1024.57 1024.79 1025.00 1025.18 1025.35 1025.50 1025.63 1025.73
1016.91 1016.79 1016.58 1016.32 1016.06 1015.86 1015.78 1015.87 1016.13 1016.55 1017.08 1017.67 1018.24 1018.74 1019.12 1019.37 1019.50 1019.55 1019.56 1019.59 1019.67 1019.83 1020.08 1020.41 1020.82 1021.27 1021.74 1022.21 1022.67 1023.10 1023.51 1023.88 1024.23 1024.54 1024.81 1025.05 1025.26 1025.44 1025.59 1025.73 1025.84 1025.95 1026.03
1016.82 1016.66 1016.41 1016.11 1015.81 1015.57 1015.46 1015.51 1015.75 1016.17 1016.73 1017.37 1018.01 1018.60 1019.09 1019.45 1019.69 1019.82 1019.90 1019.97 1020.07 1020.23 1020.47 1020.79 1021.17 1021.59 1022.05 1022.52 1022.98 1023.42 1023.85 1024.24 1024.61 1024.94 1025.22 1025.46 1025.66 1025.81 1025.93 1026.03 1026.11 1026.18 1026.25
1016.69 1016.50 1016.23 1015.91 1015.59 1015.32 1015.17 1015.18 1015.38 1015.77 1016.31 1016.95 1017.62 1018.27 1018.84 1019.30 1019.65 1019.91 1020.11 1020.28 1020.46 1020.67 1020.94 1021.26 1021.63 1022.03 1022.45 1022.89 1023.32 1023.75 1024.16 1024.56 1024.93 1025.26 1025.55 1025.78 1025.97 1026.11 1026.20 1026.27 1026.32 1026.36 1026.41
1016.62 1016.40 1016.13 1015.80 1015.47 1015.19 1015.01 1014.97 1015.11 1015.42 1015.90 1016.48 1017.12 1017.77 1018.38 1018.93 1019.40 1019.80 1020.15 1020.46 1020.78 1021.10 1021.45 1021.81 1022.19 1022.58 1022.97 1023.35 1023.73 1024.11 1024.49 1024.85 1025.20 1025.53 1025.81 1026.05 1026.23 1026.36 1026.44 1026.48 1026.51 1026.54 1026.56
1016.65 1016.43 1016.15 1015.84 1015.53 1015.24 1015.03 1014.94 1015.00 1015.21 1015.56 1016.04 1016.60 1017.20 1017.81 1018.41 1018.98 1019.52 1020.04 1020.54 1021.03 1021.51 1021.97 1022.42 1022.84 1023.23 1023.59 1023.92 1024.23 1024.54 1024.85 1025.17 1025.49 1025.79 1026.07 1026.30 1026.49 1026.61 1026.69 1026.72 1026.74 1026.75 1026.76
1016.81 1016.59 1016.34 1016.05 1015.76 1015.48 1015.26 1015.11 1015.07 1015.16 1015.38 1015.71 1016.14 1016.65 1017.21 1017.83 1018.47 1019.14 1019.83 1020.52 1021.21 1021.87 1022.49 1023.05 1023.53 1023.94 1024.27 1024.55 1024.80 1025.03 1025.27 1025.52 1025.80 1026.07 1026.34 1026.57 1026.77 1026.90 1026.99 1027.02 1027.03 1027.03 1027.03
1017.09 1016.87 1016.64 1016.39 1016.13 1015.88 1015.65 1015.46 1015.33 1015.30 1015.36 1015.53 1015.81 1016.20 1016.69 1017.29 1017.98 1018.75 1019.58 1020.45 1021.33 1022.18 1022.95 1023.64 1024.20 1024.64 1024.97 1025.20 1025.38 1025.54 1025.71 1025.89 1026.12 1026.36 1026.62 1026.86 1027.07 1027.23 1027.33 1027.39 1027.40 1027.39 1027.38
1017.43 1017.22 1017.01 1016.80 1016.59 1016.36 1016.14 1015.92 1015.73 1015.59 1015.51 1015.53 1015.66 1015.91 1016.31 1016.86 1017.56 1018.40 1019.34 1020.36 1021.39 1022.40 1023.32 1024.12 1024.76 1025.24 1025.56 1025.77 1025.90 1026.00 1026.09 1026.22 1026.40 1026.62 1026.88 1027.13 1027.37 1027.56 1027.69 1027.77 1027.80 1027.79 1027.76
1017.78 1017.58 1017.39 1017.22 1017.05 1016.86 1016.66 1016.44 1016.20 1015.98 1015.80 1015.69 1015.68 1015.82 1016.12 1016.61 1017.28 1018.14 1019.15 1020.26 1021.40 1022.51 1023.54 1024.42 1025.13 1025.64 1025.97 1026.16 1026.26 1026.30 1026.35 1026.44 1026.58 1026.79 1027.04 1027.32 1027.58 1027.82 1027.99 1028.11 1028.16 1028.16 1028.12
1018.13 1017.92 1017.75 1017.61 1017.48 1017.33 1017.16 1016.95 1016.70 1016.44 1016.19 1015.99 1015.88 1015.92 1016.13 1016.55 1017.18 1018.02 1019.03 1020.16 1021.34 1022.51 1023.58 1024.51 1025.24 1025.77 1026.11 1026.29 1026.37 1026.39 1026.41 1026.46 1026.59 1026.79 1027.05 1027.35 1027.65 1027.93 1028.15 1028.31 1028.39 1028.40 1028.37
1018.47 1018.25 1018.09 1017.97 1017.87 1017.76 1017.62 1017.43 1017.20 1016.92 1016.65 1016.40 1016.24 1016.21 1016.35 1016.69 1017.26 1018.04 1019.00 1020.09 1021.24 1022.39 1023.44 1024.36 1025.09 1025.62 1025.96 1026.14 1026.21 1026.22 1026.23 1026.28 1026.40 1026.60 1026.88 1027.19 1027.52 1027.84 1028.10 1028.30 1028.41 1028.45 1028.42
1018.85 1018.62 1018.46 1018.35 1018.27 1018.19 1018.08 1017.92 1017.70 1017.45 1017.18 1016.93 1016.74 1016.68 1016.76 1017.04 1017.53 1018.22 1019.09 1020.08 1021.13 1022.18 1023.17 1024.03 1024.72 1025.23 1025.56 1025.74 1025.82 1025.84 1025.85 1025.91 1026.03 1026.23 1026.51 1026.83 1027.18 1027.51 1027.81 1028.04 1028.19 1028.25 1028.25
1019.33 1019.10 1018.94 1018.83 1018.75 1018.68 1018.58 1018.44 1018.26 1018.03 1017.78 1017.55 1017.37 1017.30 1017.35 1017.58 1017.98 1018.56 1019.29 1020.14 1021.05 1021.97 1022.83 1023.59 1024.22 1024.69 1025.00 1025.19 1025.29 1025.33 1025.36 1025.43 1025.56 1025.75 1026.01 1026.33 1026.67 1027.00 1027.30 1027.55 1027.73 1027.82 1027.84
1019.94 1019.73 1019.57 1019.46 1019.37 1019.29 1019.19 1019.05 1018.88 1018.68 1018.47 1018.27 1018.11 1018.04 1018.09 1018.26 1018.58 1019.05 1019.64 1020.32 1021.06 1021.81 1022.52 1023.17 1023.71 1024.13 1024.43 1024.62 1024.74 1024.81 1024.87 1024.95 1025.07 1025.25 1025.48 1025.76 1026.07 1026.37 1026.66 1026.91 1027.09 1027.21 1027.27
1020.70 1020.51 1020.37 1020.25 1020.15 1020.04 1019.92 1019.77 1019.60 1019.41 1019.22 1019.06 1018.94 1018.89 1018.92 1019.06 1019.31 1019.67 1020.12 1020.63 1021.20 1021.77 1022.33 1022.85 1023.30 1023.67 1023.95 1024.16 1024.30 1024.40 1024.49 1024.57 1024.68 1024.83 1025.01 1025.23 1025.48 1025.73 1025.98 1026.20 1026.38 1026.51 1026.59
1021.55 1021.41 1021.29 1021.17 1021.04 1020.90 1020.74 1020.57 1020.38 1020.19 1020.02 1019.89 1019.81 1019.78 1019.83 1019.94 1020.14 1020.40 1020.72 1021.08 1021.48 1021.90 1022.31 1022.71 1023.07 1023.39 1023.66 1023.88 1024.05 1024.17 1024.28 1024.36 1024.45 1024.56 1024.68 1024.82 1024.99 1025.17 1025.35 1025.52 1025.68 1025.81 1025.90
1022.41 1022.34 1022.25 1022.13 1021.99 1021.81 1021.61 1021.40 1021.19 1021.00 1020.84 1020.73 1020.68 1020.69 1020.75 1020.86 1021.01 1021.20 1021.41 1021.65 1021.91 1022.19 1022.48 1022.77 1023.05 1023.33 1023.58 1023.81 1023.99 1024.14 1024.26 1024.34 1024.40 1024.45 1024.51 1024.57 1024.64 1024.74 1024.84 1024.96 1025.07 1025.18 1025.28
1023.18 1023.19 1023.14 1023.04 1022.89 1022.69 1022.45 1022.21 1021.98 1021.78 1021.63 1021.55 1021.53 1021.57 1021.65 1021.76 1021.89 1022.03 1022.17 1022.31 1022.46 1022.62 1022.80 1023.00 1023.23 1023.46 1023.69 1023.92 1024.11 1024.27 1024.39 1024.46 1024.49 1024.49 1024.47 1024.45 1024.44 1024.45 1024.48 1024.53 1024.59 1024.67 1024.74
1023.79 1023.87 1023.87 1023.80 1023.65 1023.45 1023.20 1022.94 1022.70 1022.50 1022.37 1022.32 1022.33 1022.39 1022.50 1022.62 1022.74 1022.84 1022.92 1022.99 1023.06 1023.13 1023.23 1023.36 1023.52 1023.71 1023.92 1024.13 1024.32 1024.47 1024.58 1024.63 1024.63 1024.59 1024.52 1024.43 1024.35 1024.29 1024.25 1024.23 1024.24 1024.27 1024.31
1024.19 1024.34 1024.40 1024.37 1024.24 1024.05 1023.81 1023.56 1023.33 1023.16 1023.05 1023.02 1023.06 1023.16 1023.28 1023.41 1023.52 1023.60 1023.64 1023.65 1023.65 1023.66 1023.68 1023.74 1023.85 1024.00 1024.17 1024.35 1024.52 1024.66 1024.75 1024.78 1024.75 1024.67 1024.56 1024.43 1024.30 1024.18 1024.08 1024.01 1023.97 1023.95 1023.94
1024.42 1024.62 1024.74 1024.75 1024.67 1024.51 1024.31 1024.09 1023.90 1023.75 1023.68 1023.68 1023.75 1023.86 1023.99 1024.12 1024.22 1024.27 1024.27 1024.24 1024.18 1024.13 1024.09 1024.10 1024.15 1024.24 1024.37 1024.52 1024.65 1024.76 1024.82 1024.83 1024.78 1024.68 1024.54 1024.38 1024.21 1024.06 1023.93 1023.82 1023.73 1023.66 1023.60
Thickness
5725 5724 5724 5723 5724 5723 5722 5722 5722 5722 5722 5722 5722 5722 5722 5722 5722 5721 5720 5716 5715 5713 5712 5711 5710 5709 5708 5707 5706 5705 5704 5702 5701 5700 5699 5697 5696 5695 5694 5692 5691 5691 5690
5718 5718 5718 5718 5719 5719 5718 5718 5718 5717 5717 5717 5717 5716 5715 5716 5714 5714 5714 5713 5711 5710 5709 5708 5707 5706 5705 5704 5702 5701 5699 5698 5697 5695 5694 5692 5691 5690 5689 5688 5687 5686 5685
5711 5712 5712 5712 5713 5713 5712 5712 5713 5713 5712 5712 5711 5710 5709 5709 5708 5708 5709 5709 5708 5706 5705 5704 5703 5702 5701 5699 5698 5696 5695 5693 5691 5690 5688 5687 5685 5684 5683 5681 5680 5680 5679
5704 5704 5706 5706 5706 5706 5707 5708 5708 5708 5707 5705 5704 5703 5702 5701 5702 5702 5703 5703 5703 5703 5701 5699 5698 5697 5696 5694 5693 5691 5689 5687 5685 5683 5681 5680 5678 5676 5675 5674 5673 5672 5672
5699 5699 5700 5699 5699 5701 5702 5704 5704 5703 5701 5699 5697 5696 5695 5694 5695 5695 5696 5696 5696 5696 5695 5692 5691 5690 5689 5688 5686 5684 5682 5680 5678 5675 5673 5671 5669 5668 5667 5666 5665 5664 5663
5693 5693 5693 5693 5694 5695 5696 5697 5697 5697 5696 5693 5691 5687 5686 5686 5686 5687 5687 5687 5687 5687 5688 5686 5684 5682 5681 5680 5679 5677 5675 5672 5669 5667 5664 5662 5660 5659 5657 5656 5656 5655 5654
5686 5687 5688 5689 5689 5690 5691 5692 5692 5691 5690 5688 5682 5678 5676 5676 5677 5677 5677 5677 5677 5678 5678 5677 5676 5674 5672 5670 5669 5668 5666 5663 5660 5657 5655 5652 5650 5649 5648 5647 5646 5645 5644
5679 5681 5682 5683 5685 5685 5685 5685 5686 5686 5684 5684 5681 5674 5668 5665 5665 5666 5667 5668 5667 5667 5667 5666 5665 5664 5663 5661 5658 5657 5655 5652 5650 5647 5644 5642 5640 5639 5637 5636 5635 5634 5633
5671 5673 5675 5676 5679 5681 5681 5681 5682 5682 5679 5678 5679 5675 5668 5665 5659 5655 5656 5657 5657 5656 5655 5654 5654 5653 5652 5650 5647 5644 5642 5641 5639 5637 5634 5632 5630 5628 5627 5625 5624 5623 5622
5664 5665 5667 5669 5671 5674 5674 5675 5677 5677 5676 5673 5672 5671 5670 5668 5660 5650 5645 5645 5645 5644 5644 5644 5642 5641 5639 5638 5634 5631 5630 5629 5627 5625 5623 5621 5620 5618 5616 5614 5613 5611 5611
5654 5656 5658 5660 5663 5664 5665 5667 5669 5669 5669 5668 5667 5664 5662 5660 5658 5652 5641 5635 5633 5632 5633 5632 5630 5629 5627 5626 5623 5620 5618 5616 5615 5613 5612 5610 5609 5607 5605 5603 5602 5600 5599
5644 5646 5648 5650 5653 5655 5656 5658 5659 5660 5660 5660 5659 5658 5657 5654 5651 5647 5639 5632 5627 5621 5621 5620 5619 5618 5617 5615 5613 5609 5607 5605 5603 5602 5600 5599 5597 5596 5594 5592 5590 5589 5587
5634 5634 5637 5639 5642 5644 5645 5647 5648 5649 5650 5650 5649 5648 5648 5647 5646 5643 5637 5627 5619 5612 5610 5608 5608 5607 5607 5606 5602 5599 5597 5595 5593 5592 5590 5588 5586 5584 5583 5581 5579 5577 5575
5622 5623 5626 5628 5630 5632 5635 5637 5638 5638 5638 5639 5639 5638 5638 5637 5637 5635 5632 5624 5615 5607 5604 5601 5599 5598 5598 5597 5594 5591 5588 5586 5584 5582 5580 5578 5576 5574 5572 5570 5568 5565 5563
5611 5612 5614 5617 5619 5620 5623 5625 5626 5627 5628 5628 5628 5628 5628 5626 5626 5625 5623 5621 5616 5607 5598 5593 5593 5590 5589 5588 5585 5584 5582 5578 5575 5573 5571 5568 5566 5564 5562 5560 5557 5555 5552
5599 5601 5603 5605 5607 5609 5610 5613 5614 5615 5616 5616 5616 5616 5616 5616 5615 5614 5612 5611 5609 5606 5598 5591 5588 5585 5582 5581 5577 5576 5574 5569 5567 5564 5562 5559 5557 5554 5552 5550 5547 5545 5542
5589 5591 5592 5594 5596 5597 5598 5600 5601 5602 5604 5605 5605 5605 5604 5605 5605 5604 5603 5602 5600 5599 5592 5584 5580 5575 5573 5572 5569 5568 5566 5563 5560 5556 5553 5551 5548 5545 5543 5540 5538 5535 5532
5578 5579 5581 5582 5584 5585 5586 5588 5589 5591 5592 5593 5593 5594 5594 5594 5594 5594 5593 5592 5590 5588 5584 5577 5572 5569 5565 5563 5561 5559 5559 5558 5554 5548 5545 5542 5540 5537 5535 5532 5529 5527 5524
5566 5568 5570 5571 5572 5573 5574 5575 5577 5579 5580 5580 5581 5582 5582 5583 5583 5582 5582 5581 5580 5578 5575 5570 5566 5562 5559 5556 5554 5552 5551 5548 5547 5542 5538 5535 5533 5530 5528 5525 5523 5520 5518
5556 5557 5559 5560 5561 5562 5562 5563 5565 5566 5567 5567 5568 5569 5569 5570 5570 5570 5570 5568 5568 5566 5563 5562 5558 5555 5552 5548 5547 5547 5545 5542 5541 5539 5534 5531 5527 5524 5522 5520 5517 5515 5512
5546 5547 5548 5549 5549 5550 5550 5552 5554 5555 5555 5556 5556 5556 5555 5554 5554 5556 5558 5557 5557 5556 5555 5553 5551 5549 5545 5542 5542 5540 5539 5536 5534 5532 5531 5528 5526 5523 5520 5516 5513 5510 5507
5535 5537 5538 5538 5538 5537 5535 5538 5542 5544 5544 5545 5545 5545 5545 5544 5542 5542 5541 5542 5543 5545 5545 5544 5543 5539 5535 5534 5531 5531 5531 5531 5528 5525 5524 5524 5522 5520 5518 5515 5509 5506 5502
5526 5527 5527 5527 5526 5523 5524 5526 5529 5533 5533 5533 5534 5535 5536 5533 5535 5534 5531 5530 5530 5529 5528 5531 5531 5528 5526 5524 5522 5523 5520 5521 5519 5519 5518 5519 5518 5516 5514 5512 5506 5502 5499
5517 5517 5518 5517 5517 5513 5514 5516 5519 5523 5523 5522 5523 5524 5524 5524 5523 5524 5526 5525 5524 5521 5520 5521 5519 5517 5516 5513 5513 5513 5512 5513 5512 5512 5510 5512 5514 5512 5511 5508 5503 5500 5497
5509 5510 5510 5509 5509 5506 5505 5508 5511 5515 5514 5514 5514 5514 5515 5514 5510 5512 5517 5518 5516 5514 5510 5509 5507 5506 5504 5504 5503 5507 5510 5511 5510 5510 5508 5508 5508 5508 5508 5507 5503 5500 5497
5504 5504 5503 5502 5502 5500 5498 5501 5503 5511 5509 5510 5508 5507 5503 5503 5503 5504 5509 5510 5509 5508 5507 5506 5503 5501 5501 5500 5498 5499 5503 5504 5504 5504 5504 5503 5504 5504 5505 5505 5503 5501 5498